SL-16 DEB, 39723

Orbit data source: Space-Track

SL-16 DEB, 39723 is space debris in LEO originally from a launch on Fri, 25 Dec 1992 UTC launched from the Tyuratam Missile And Space Complex (TTMTR). Debris objects in space refer to the collection of defunct objects orbiting the Earth. Examples of debris include non-operational satellites, rocket bodies, and fragments generated from explosions, collisions, or faulty payload assembly.

Loading next visibility...
Identifier
39723, 1992-093KP
Orbit
LEO
Country
Flag of CISCIS
Related business
Manufacturer
Unknown
Mission
Spacecraft
Bus & Motor
Unknown
Mass
Unknown
Launch date (UTC)
1992-12-25 (33 years ago)
Launch vehicle
Unknown
Launch site
Tyuratam Missile And Space Complex (TTMTR)
Object type
Payload
Rocket body
Debris
Shape & HBR
Unknown shape, 1.1 m
Radar Cross Section
Small (<0.1 m²)

Expand to show TLE details & history
Last TLE update: 5 days ago

TLE from 5 days ago
0 SL-16 DEB
1 39723U 92093KP  26169.43400139  .00001875  00000-0  70312-3 0  9992
2 39723  71.0932  66.5831 0049597 153.8009 206.5649 14.32254421240104
Epoch: 2026-06-18T10:24Z
TLE epoch observation values (Epoch: 2026-06-18T10:24:57.720Z)
Latitude
-0.00001°
Longitude
3.66521°
Altitude
818.444 km
Speed
7.428 km/s
True Right ascension
04h 26m 19s
True Declination
0° 00' 00"
Sunlit
Object was in daylight at epoch
Visualization orbit readout
Latitude
Unknown
Longitude
Unknown
Altitude
Unknown
Speed
Unknown
Apparent Right ascension
Unknown
Apparent Declination
Unknown
Sunlit
N/A
Visualization observer readout
Local Sidereal Time
11:33:11
Azimuth
Unknown
Elevation
Unknown
Doppler factor
Unknown
Orbital elements
Apogee altitude
817.616 km
Perigee altitude
746.591 km
Semi-major axis
7,160.241 km
Eccentricity
0.00496
Inclination
71.0932°
RAAN
66.5831°
Arg. of periapsis
153.8009°
True anomaly
206.31213°
Mean anomaly
206.5649°
Eccentric anomaly
206.43838°
Mean motion
3.58222 °/min
Orbital period
100.5 mins
BSTAR
0.00070312
Loading maneuver chart data...
Computing Atmospheric mass density...
Loading historical data...
Loading historical data...
Loading historical data...
Loading historical data...
Loading historical data...
Loading historical data...
Loading historical data...

Documentation

Showing up to 5 results
|